Punta Gorda, FL

12:04 PM EDT on April 30, 2017 (GMT -0400)
Charlotte County

Weather History for KPGD - March, 2013

Change the Weather History Date:

Thursday, March 7, 2013

  Actual Average Record
Temperature  
Mean Temperature 56 °F -  
Max Temperature 68 °F 77 °F 86 °F (2008)
Min Temperature 43 °F 54 °F 43 °F (2013)
Degree Days  
Heating Degree Days 10    
Growing Degree Days 6 (Base 50)    
Moisture  
Dew Point 38 °F    
Average Humidity 57    
Maximum Humidity 80    
Minimum Humidity 27    
Precipitation  
Precipitation 0.00 in - - ()
Sea Level Pressure  
Sea Level Pressure 30.21 in    
Wind  
Wind Speed 8 mph (NNW)    
Max Wind Speed 16 mph    
Max Gust Speed 17 mph    
Visibility 10 miles    
Events      
Averages and records for this station are not official NWS values.
T = Trace of Precipitation, MM = Missing Value Source: NWS Daily Summary

Daily Weather History Graph

Daily Weather History Graph

Search for Another Location

Airport or City:

Trip Planner

Search our weather history database for the weather conditions in past years. The results will help you decide how hot, cold, wet, or windy it might be!

Date:

Astronomy

Mar. 07, 2013 Rise Set
Actual Time 6:45 AM EST 6:32 PM EST
Civil Twilight 6:22 AM EST 6:55 PM EST
Nautical Twilight 5:55 AM EST 7:22 PM EST
Astronomical Twilight 5:28 AM EST 7:49 PM EST
Moon 3:24 AM EST (3/7) 2:37 PM EST (3/7)
Length of Visible Light 12h 33m
Length of Day
11h 46m
Waning Crescent, 20% of the Moon is Illuminated
Mar 7
Waning Crescent
Mar 11
New
Mar 19
First Quarter
Mar 27
Full
Apr 3
Last Quarter

Hourly Weather History & Observations

Time (EST) Temp. Windchill Dew Point Humidity Pressure Visibility Wind Dir Wind Speed Gust Speed Precip Events Conditions
12:53 AM 50.0 °F - 42.1 °F 74% 30.17 in 10.0 mi NNW 5.8 mph - N/A   Clear
1:53 AM 48.9 °F - 41.0 °F 74% 30.17 in 10.0 mi North 6.9 mph - N/A   Clear
2:53 AM 46.9 °F - 37.0 °F 68% 30.17 in 10.0 mi North 9.2 mph - N/A   Clear
3:53 AM 46.0 °F 41.9 °F 35.1 °F 66% 30.16 in 10.0 mi North 8.1 mph - N/A   Clear
4:53 AM 44.1 °F 39.5 °F 35.1 °F 71% 30.17 in 10.0 mi North 8.1 mph - N/A   Clear
5:53 AM 45.0 °F 39.3 °F 34.0 °F 65% 30.18 in 10.0 mi North 11.5 mph - N/A   Clear
6:53 AM 43.0 °F 37.7 °F 33.1 °F 68% 30.20 in 10.0 mi NNE 9.2 mph - N/A   Clear
7:53 AM 46.9 °F - 34.0 °F 61% 30.23 in 10.0 mi NNE 9.2 mph - N/A   Clear
8:53 AM 50.0 °F - 33.1 °F 52% 30.24 in 10.0 mi NE 16.1 mph - N/A   Clear
9:53 AM 54.0 °F - 32.0 °F 43% 30.25 in 10.0 mi NE 13.8 mph - N/A   Clear
10:53 AM 57.9 °F - 33.1 °F 39% 30.25 in 10.0 mi North 8.1 mph - N/A   Clear
11:53 AM 61.0 °F - 34.0 °F 36% 30.25 in 10.0 mi NNW 10.4 mph 17.3 mph N/A   Clear
12:53 PM 64.0 °F - 34.0 °F 33% 30.23 in 10.0 mi North 10.4 mph - N/A   Clear
1:53 PM 64.0 °F - 33.1 °F 31% 30.20 in 10.0 mi Calm Calm - N/A   Clear
2:53 PM 68.0 °F - 33.1 °F 27% 30.18 in 10.0 mi NNW 8.1 mph - N/A   Clear
3:53 PM 66.9 °F - 39.0 °F 36% 30.16 in 10.0 mi West 8.1 mph - N/A   Clear
4:53 PM 64.9 °F - 43.0 °F 45% 30.17 in 10.0 mi West 12.7 mph - N/A   Clear
5:53 PM 62.1 °F - 43.0 °F 50% 30.18 in 10.0 mi West 8.1 mph - N/A   Clear
6:53 PM 57.0 °F - 43.0 °F 59% 30.19 in 10.0 mi West 5.8 mph - N/A   Clear
7:53 PM 55.0 °F - 44.1 °F 67% 30.22 in 10.0 mi WNW 5.8 mph - N/A   Clear
8:53 PM 53.1 °F - 43.0 °F 69% 30.24 in 10.0 mi NW 5.8 mph - N/A   Clear
9:53 PM 52.0 °F - 43.0 °F 71% 30.25 in 10.0 mi NW 9.2 mph - N/A   Clear
10:53 PM 50.0 °F - 43.0 °F 77% 30.24 in 10.0 mi North 6.9 mph - N/A   Clear
11:53 PM 48.9 °F - 43.0 °F 80% 30.24 in 10.0 mi North 5.8 mph - N/A   Clear